When you browse on this site, cookies collect data to enhance your experience and personalize the content and advertising you see.
Visit our Privacy Policy to learn more. By continuing to use the site, you agree to this use of cookies and data.
  • In Hungary
  • List of Countries
  • For 7 days
  • Water Temperature
  • Weather Map
  • News
  • Weather Widgets
  • user-avatar
    Login

    Hourly Weather Seattle

    Today, 21 November, Thursday

    Time Temperature Precipitation Wind Pressure Humidity
    00:00 -8°C° 0 mm 2 mps 649 mmHg 75%
    01:00 -8°C° 0 mm 2 mps 648 mmHg 72%
    02:00 -8°C° 0 mm 2 mps 648 mmHg 69%
    03:00 -7°C° 0 mm 2 mps 648 mmHg 67%
    04:00 -7°C° 0 mm 2 mps 648 mmHg 66%
    05:00 -8°C° 0 mm 3 mps 648 mmHg 64%
    06:00 -8°C° 0 mm 3 mps 647 mmHg 63%
    07:00 -7°C° 0 mm 3 mps 647 mmHg 62%
    08:00 -7°C° 0 mm 3 mps 647 mmHg 61%
    09:00 -5°C° 0 mm 3 mps 647 mmHg 61%
    10:00 -4°C° 0 mm 3 mps 647 mmHg 61%
    11:00 -1°C° 0 mm 3 mps 647 mmHg 62%
    12:00 0°C° 0 mm 3 mps 647 mmHg 64%
    13:00 +1°C° 0 mm 3 mps 646 mmHg 66%
    14:00 +1°C° 0 mm 3 mps 646 mmHg 68%
    15:00 0°C° 0 mm 3 mps 645 mmHg 68%
    16:00 -1°C° 0 mm 3 mps 645 mmHg 68%
    17:00 -2°C° 0 mm 3 mps 644 mmHg 67%
    18:00 -2°C° 0 mm 3 mps 644 mmHg 65%
    19:00 -4°C° 0 mm 4 mps 644 mmHg 63%
    20:00 -4°C° 0 mm 4 mps 644 mmHg 60%
    21:00 -4°C° 0 mm 4 mps 644 mmHg 59%
    22:00 -4°C° 0 mm 4 mps 644 mmHg 58%
    23:00 -5°C° 0 mm 5 mps 644 mmHg 57%

    Tomorrow, 22 November, Friday

    Time Temperature Precipitation Wind Pressure Humidity
    00:00 -5°C° 0 mm 5 mps 644 mmHg 57%
    01:00 -5°C° 0 mm 5 mps 643 mmHg 58%
    02:00 -5°C° 0 mm 5 mps 643 mmHg 58%
    03:00 -5°C° 0 mm 5 mps 643 mmHg 58%
    04:00 -5°C° 0 mm 5 mps 643 mmHg 57%
    05:00 -5°C° 0 mm 6 mps 643 mmHg 57%
    06:00 -5°C° 0 mm 6 mps 643 mmHg 56%
    07:00 -5°C° 0 mm 6 mps 644 mmHg 56%
    08:00 -5°C° 0 mm 6 mps 644 mmHg 55%
    09:00 -3°C° 0 mm 6 mps 645 mmHg 54%
    10:00 -1°C° 0 mm 5 mps 645 mmHg 54%
    11:00 +1°C° 0 mm 5 mps 646 mmHg 53%
    12:00 +2°C° 0 mm 5 mps 646 mmHg 53%
    13:00 +3°C° 0 mm 4 mps 647 mmHg 53%
    14:00 +4°C° 0 mm 4 mps 647 mmHg 53%
    15:00 +1°C° 0 mm 4 mps 647 mmHg 57%
    16:00 0°C° 0 mm 4 mps 647 mmHg 60%
    17:00 -2°C° 0 mm 4 mps 646 mmHg 64%
    18:00 -2°C° 0 mm 4 mps 647 mmHg 63%
    19:00 -3°C° 0 mm 4 mps 647 mmHg 63%
    20:00 -5°C° 0 mm 5 mps 647 mmHg 63%
    21:00 -5°C° 0 mm 5 mps 647 mmHg 63%
    22:00 -5°C° 0 mm 5 mps 648 mmHg 63%
    23:00 -5°C° 0 mm 5 mps 648 mmHg 63%

    Day after tomorrow, 23 November, Saturday

    Time Temperature Precipitation Wind Pressure Humidity
    00:00 -5°C° 0 mm 5 mps 648 mmHg 64%
    01:00 -4°C° 0 mm 4 mps 648 mmHg 65%
    02:00 -4°C° 0 mm 4 mps 647 mmHg 65%
    03:00 -3°C° 0 mm 4 mps 647 mmHg 64%
    04:00 -4°C° 0 mm 5 mps 647 mmHg 63%
    05:00 -4°C° 0 mm 5 mps 647 mmHg 62%
    06:00 -4°C° 0 mm 5 mps 647 mmHg 61%
    07:00 -3°C° 0 mm 4 mps 647 mmHg 61%
    08:00 -2°C° 0 mm 4 mps 647 mmHg 60%
    09:00 -1°C° 0 mm 4 mps 647 mmHg 58%
    10:00 0°C° 0 mm 5 mps 647 mmHg 56%
    11:00 +1°C° 0 mm 5 mps 647 mmHg 54%
    12:00 +1°C° 0 mm 5 mps 647 mmHg 54%
    13:00 +2°C° 0 mm 5 mps 646 mmHg 53%
    14:00 +3°C° 0 mm 5 mps 646 mmHg 52%
    15:00 +2°C° 0 mm 6 mps 646 mmHg 55%
    16:00 +1°C° 0 mm 6 mps 645 mmHg 58%
    17:00 -1°C° 0 mm 7 mps 645 mmHg 61%
    18:00 -1°C° 0 mm 8 mps 645 mmHg 63%
    19:00 -1°C° 0 mm 8 mps 645 mmHg 65%
    20:00 -3°C° 0 mm 9 mps 645 mmHg 67%
    21:00 -1°C° 0 mm 9 mps 645 mmHg 68%
    22:00 -1°C° 0 mm 8 mps 644 mmHg 69%
    23:00 -1°C° 0 mm 7 mps 644 mmHg 70%

    24 November, Sunday

    Time Temperature Precipitation Wind Pressure Humidity
    00:00 0°C° 0 mm 8 mps 644 mmHg 68%
    01:00 0°C° 0 mm 9 mps 643 mmHg 67%
    02:00 +1°C° 0 mm 11 mps 643 mmHg 65%
    03:00 0°C° 0 mm 12 mps 643 mmHg 65%
    04:00 0°C° 0 mm 13 mps 643 mmHg 64%
    05:00 0°C° 0 mm 14 mps 642 mmHg 64%
    06:00 0°C° 0 mm 12 mps 642 mmHg 66%
    07:00 +1°C° 0 mm 11 mps 642 mmHg 68%
    08:00 +1°C° 0 mm 10 mps 642 mmHg 70%
    09:00 +1°C° 0.1 mm 9 mps 642 mmHg 68%
    10:00 +2°C° 0.1 mm 9 mps 642 mmHg 67%
    11:00 +2°C° 0.1 mm 9 mps 642 mmHg 65%
    12:00 +2°C° 0.3 mm 8 mps 641 mmHg 66%
    13:00 +1°C° 0.3 mm 8 mps 641 mmHg 67%
    14:00 +1°C° 0.3 mm 8 mps 640 mmHg 68%
    15:00 0°C° 0 mm 8 mps 640 mmHg 67%
    16:00 -1°C° 0 mm 8 mps 640 mmHg 65%
    17:00 -2°C° 0 mm 8 mps 640 mmHg 64%
    18:00 -2°C° 0 mm 8 mps 640 mmHg 64%
    19:00 -4°C° 0 mm 8 mps 641 mmHg 64%
    20:00 -4°C° 0 mm 9 mps 641 mmHg 64%
    21:00 -5°C° 0 mm 8 mps 641 mmHg 65%
    22:00 -4°C° 0 mm 7 mps 641 mmHg 66%
    23:00 -4°C° 0 mm 6 mps 641 mmHg 67%

    25 November, Monday

    Time Temperature Precipitation Wind Pressure Humidity
    00:00 -5°C° 0 mm 5 mps 641 mmHg 68%
    01:00 -4°C° 0 mm 4 mps 640 mmHg 70%
    02:00 -5°C° 0 mm 3 mps 640 mmHg 71%
    03:00 -4°C° 0 mm 2 mps 640 mmHg 72%
    04:00 -4°C° 0 mm 2 mps 640 mmHg 73%
    05:00 -3°C° 0 mm 1 mps 640 mmHg 74%
    06:00 -5°C° 0 mm 2 mps 640 mmHg 74%
    07:00 -5°C° 0 mm 2 mps 640 mmHg 74%
    08:00 -5°C° 0 mm 2 mps 640 mmHg 74%
    09:00 -4°C° 0 mm 2 mps 640 mmHg 68%
    10:00 -3°C° 0 mm 2 mps 641 mmHg 62%
    11:00 -1°C° 0 mm 2 mps 641 mmHg 56%
    12:00 -1°C° 0.3 mm 3 mps 641 mmHg 55%
    13:00 -1°C° 0.3 mm 3 mps 641 mmHg 54%
    14:00 -2°C° 0.3 mm 4 mps 641 mmHg 53%
    15:00 -3°C° 0.5 mm 4 mps 641 mmHg 65%
    16:00 -5°C° 0.5 mm 3 mps 641 mmHg 78%
    17:00 -6°C° 0.5 mm 3 mps 641 mmHg 91%
    18:00 -5°C° 0.2 mm 2 mps 641 mmHg 88%
    19:00 -6°C° 0.2 mm 2 mps 641 mmHg 85%
    20:00 -4°C° 0.2 mm 1 mps 642 mmHg 82%
    21:00 -4°C° 0.2 mm 1 mps 642 mmHg 82%
    22:00 -4°C° 0.2 mm 1 mps 642 mmHg 81%
    23:00 -4°C° 0.2 mm 1 mps 642 mmHg 80%

    26 November, Tuesday

    Time Temperature Precipitation Wind Pressure Humidity
    00:00 -6°C° 0.3 mm 1 mps 642 mmHg 84%
    01:00 -6°C° 0.3 mm 1 mps 642 mmHg 87%
    02:00 -6°C° 0.3 mm 1 mps 641 mmHg 91%
    03:00 -6°C° 0.1 mm 1 mps 641 mmHg 90%
    04:00 -7°C° 0.1 mm 1 mps 642 mmHg 89%
    05:00 -7°C° 0.1 mm 1 mps 642 mmHg 88%
    06:00 -7°C° 0 mm 1 mps 642 mmHg 85%
    07:00 -7°C° 0 mm 1 mps 642 mmHg 82%
    08:00 -8°C° 0 mm 1 mps 642 mmHg 79%
    09:00 -7°C° 0 mm 1 mps 642 mmHg 74%
    10:00 -6°C° 0 mm 1 mps 642 mmHg 68%
    11:00 -5°C° 0 mm 0 mps 642 mmHg 63%
    12:00 -4°C° 0 mm 1 mps 642 mmHg 61%
    13:00 -4°C° 0 mm 1 mps 642 mmHg 60%
    14:00 -4°C° 0 mm 1 mps 642 mmHg 59%
    15:00 -4°C° 0 mm 1 mps 642 mmHg 64%
    16:00 -6°C° 0 mm 1 mps 642 mmHg 69%
    17:00 -7°C° 0 mm 1 mps 642 mmHg 74%
    18:00 -9°C° 0.3 mm 3 mps 642 mmHg 78%
    19:00 -11°C° 0.3 mm 4 mps 642 mmHg 83%
    20:00 -12°C° 0.3 mm 5 mps 643 mmHg 87%
    21:00 -13°C° 0.4 mm 5 mps 643 mmHg 88%
    22:00 -12°C° 0.4 mm 4 mps 643 mmHg 90%
    23:00 -14°C° 0.4 mm 4 mps 643 mmHg 92%
    Show more